Aérodrome :
LOGIN :

S'inscrire | Disclaimer

   EN    FR    IT 

 










Légende :    VFR   VFR Marginal   IFR   IFR Intensif   IFR Très Intensif
Visi : 
Plafond : 
>= 8 km
>= 3000ft
5 à 8 km
1000 à 3000 ft
1500m à 5 km
500 à 1000 ft
800 à 1500m
200 à 500 ft
< 800m
< 200 ft
Symboles :   Orages  Brouillard  Fortes neiges  Fortes précipitations  Vent > 20 kt
SIGMETs :   Divers  Orages  Givrage  Turbulence  Onde Orograph.  Cendres Volcan.







- Altitude de l'aérodrome : 1302 ft
- Code IATA : GNB
- Voir les cartes d'approche


LFLS - Grenoble / St. Geoirs

DERNIER METAR :
  • 221600Z AUTO 35008KT CAVOK 18/03 Q1026 NOSIG

METARs EXPIRÉS :
  • 221530Z AUTO 01007KT CAVOK 19/03 Q1027 NOSIG
  • 221500Z AUTO 03006KT 340V060 CAVOK 19/02 Q1027 NOSIG
  • 221430Z AUTO 02006KT CAVOK 19/01 Q1027 NOSIG
  • 221400Z AUTO 35004KT 310V080 CAVOK 20/01 Q1027 NOSIG
  • 221330Z AUTO VRB01KT CAVOK 19/03 Q1027 NOSIG

TAF TAF LFLS
Valide du 22 à 15h jusqu'au 23 à 15h UTC


221400Z 2215/2315 VRB02KT CAVOK
TEMPO 2215/2217 36006KT
PROB30
TEMPO 2304/2308 0600 BCFG
BECMG 2311/2313 36010KT
ATIS : +33 4 76 65 55 89
Pas de NOTAMs connus pour ce terrain.



MET'MAP, la Météo Aéronautique d'un coup d'oeil ! - Copyright ORBIFLY Décembre 2007 - Disclaimer

ORBIFLY MET'MAP TEAM :

Programmation & Développement : Alexandra Zaïnal
Conception & Développement : Baudouin d'Aumeries
Co-Programmation & Développement : Marc-Olivier Méhu
Soutien technique & logistique : Manuel Goepfert

Contact : metmap@orbifly.com




SOURCES & CREDITS :

   NOAA